Coronas F rocket - Orbit

View from above orbital plane
View from above orbital plane
View from above satellite
View from above satellite

Ground track
Ground track

The orbit data is extracted from the following two-line orbital elements,

1 26874U 01032B   13168.17037893  .00004212  00000-0  88584-4 0  4047
2 26874 082.4759 003.1690 0016889 304.4104 055.5546 15.44826330664834
Epoch (UTC): 17 June 2013 04:05:20
Eccentricity: 0.0016889
inclination: 82.4759°
perigee height: 420 km
apogee height: 443 km
right ascension of ascending node: 3.1690°
argument of perigee: 304.4104°
revolutions per day: 15.44826330
mean anomaly at epoch: 55.5546°
orbit number at epoch: 66483

The dashed part of the orbit path shows where the satellite is in the earth's shadow,  

Developed and maintained by Chris Peat, Heavens-Above GmbH. Please read the updated FAQ before sending e-mail. Imprint. DLR